www.pogodaiklimat.ru

Погода и климат >> Архив погоды >> Мексика >> Huejucar


ПОГОДА в Huejucar

  • Прогноз погоды в Huejucar
  • Монитор погоды в Huejucar
  • Климат города

АРХИВ ПОГОДЫ в Huejucar

Время (UTC), дата Ветер
(напр.,м/с)
 
Видим.   Явления Облачность Т
(С)
Тd
(С)
f
(%)
Тe
(С)
Тes
(С)
Комфортность P
(гПа)
Po
(гПа)
Тmin
(С)
Tmax
(С)
R
(мм)
R24
(мм)
S
(см)
15 16.10 С 1 н/о н/о +18.9 +18.9 100 +22 +22 комфорт 1019.9 834.2
18 16.10 СЗ 1 н/о н/о +24.8 +16.0 58 +28 +28 жарко 1015.2 833.7 +15.4 +24.9
21 16.10 Ю 1 н/о н/о +26.9 +14.7 47 +29 +29 жарко 1010.7 831.1
00 17.10 ЮВ 1 н/о н/о +23.4 +15.3 60 +28 +28 душно 1012.7 830.9 +15.4 +28.6
03 17.10 ЮЗ 2 н/о н/о +20.2 +16.9 81 +24 +24 комфорт 1018.1 833.5
06 17.10 СВ 5 н/о н/о +17.5 +17.5 100 +17 +17 1021.6 834.8 +15.4 +28.6
09 17.10 СВ 3 н/о н/о +15.9 1022.7 834.7
12 17.10 СВ 1 н/о н/о +15.9 1023.0 835.0 +15.7 +28.6
15 17.10 СВ 3 н/о н/о +20.2 +16.4 79 +23 +23 комфорт 1021.0 835.8
18 17.10 В 3 н/о н/о +24.6 +14.7 54 +27 +27 жарко 1017.5 835.4 +15.7 +26.6
21 17.10 СВ 2 н/о н/о +27.7 +14.2 44 +30 +30 жарко 1012.5 833.0
00 18.10 СВ 2 н/о н/о +23.7 +14.2 55 +26 +26 жарко 1015.2 833.0 +15.7 +28.3
03 18.10 СВ 2 н/о н/о +21.7 +13.8 61 +25 +25 комфорт 1018.6 834.7
06 18.10 СВ 3 н/о н/о +18.9 +13.3 70 +20 +20 1022.2 836.0 +15.7 +28.3
09 18.10 В 2 н/о н/о +15.3 +14.9 97 +15 +15 1023.9 835.4
12 18.10 В 3 н/о н/о +15.3 +15.3 100 +15 +15 1024.8 836.1 +14.9 +28.3
15 18.10 СВ 3 н/о н/о +19.8 +14.2 70 +22 +22 комфорт 1023.3 837.5
21 18.10 В 3 н/о н/о +25.3 +13.6 48 +27 +27 жарко 1016.0 834.6
00 19.10 В 3 н/о н/о +23.6 +14.5 57 +26 +26 жарко 1016.9 834.4 +14.9 +27.7
03 19.10 СВ 2 н/о н/о +19.0 +15.9 82 +21 +21 комфорт 1022.4 836.3
06 19.10 СВ 3 н/о н/о +17.3 +17.3 100 +17 +17 1024.4 837.0 +14.9 +27.7
09 19.10 СВ 4 н/о н/о +16.6 +15.3 92 +16 +16 1023.6 835.9
12 19.10 СВ 3 н/о н/о +15.1 +15.1 100 +14 +14 1024.4 835.7 +14.9 +27.7
15 19.10 СВ 3 н/о н/о +20.1 +15.2 73 +23 +23 комфорт 1022.6 837.1
18 19.10 СВ 2 н/о н/о +26.5 +13.0 43 +28 +28 жарко 1017.0 836.1 +14.7 +27.0
21 19.10 СЗ 1 н/о н/о +25.9 +14.7 50 +28 +28 жарко 1014.3 833.5
00 20.10 З 1 н/о н/о +23.8 +15.1 58 +27 +27 жарко 1015.2 833.1 +14.7 +30.0
03 20.10 В 1 н/о н/о +20.5 +17.8 85 +25 +25 комфорт 1019.7 834.9
06 20.10 СВ 4 н/о н/о +18.2 +14.6 80 +18 +18 1022.4 835.8 +14.7 +30.0
09 20.10 СВ 3 н/о н/о +16.2 +14.1 87 +16 +16 1023.0 835.1
12 20.10 СВ 4 н/о н/о +15.4 +14.4 94 +14 +14 1023.5 835.1 +15.3 +30.0
15 20.10 СВ 4 н/о н/о +18.0 +14.7 81 +18 +18 1023.4 836.6
18 20.10 В 3 н/о н/о +24.8 +14.2 52 +27 +27 жарко 1017.4 835.5 +15.3 +24.8
21 20.10 В 2 н/о н/о +28.9 +13.2 38 +30 +30 жарко 1011.2 832.6
00 21.10 З 1 н/о н/о +22.8 +15.6 64 +27 +27 душно 1015.2 832.6 +15.3 +29.6
03 21.10 СВ 3 н/о н/о +20.9 +14.5 67 +24 +24 комфорт 1019.6 835.1
06 21.10 СВ 2 н/о н/о +19.1 +15.4 79 +21 +21 комфорт 1021.9 836.0 +15.3 +29.6
09 21.10 СВ 3 н/о н/о +17.6 +14.9 84 +18 +18 1022.2 835.3
12 21.10 СВ 3 н/о н/о +17.0 +15.8 93 +17 +17 1022.9 835.6 +16.9 +29.6
15 21.10 СВ 3 н/о н/о +19.7 +15.0 74 +22 +22 комфорт 1022.4 836.7
18 21.10 СВ 4 н/о н/о +22.8 +13.3 55 +26 +26 жарко 1019.2 835.8 +16.8 +23.4
21 21.10 СВ 4 н/о н/о +25.3 +13.9 49 +28 +28 жарко 1014.4 833.3
00 22.10 СВ 4 н/о н/о +22.3 +13.2 56 +25 +25 комфорт 1016.2 833.1 +16.8 +26.7
03 22.10 СВ 3 н/о н/о +20.0 +14.0 68 +22 +22 комфорт 1019.4 834.4
06 22.10 СВ 2 н/о н/о +18.8 +14.1 74 +20 +20 1021.1 835.1 +16.8 +26.7
09 22.10 СВ 2 н/о н/о +17.8 +14.1 79 +18 +18 1020.5 834.1
12 22.10 СВ 2 н/о н/о +17.5 +13.9 79 +18 +18 1020.9 834.2 +17.2 +26.7
15 22.10 СВ 2 н/о н/о +18.1 +14.5 79 +19 +19 1021.8 835.3
18 22.10 В 2 н/о н/о +21.8 +14.5 63 +25 +25 комфорт 1018.7 834.9 +17.2 +22.5
21 22.10 В 2 н/о н/о +23.8 +14.7 57 +27 +27 жарко 1014.7 832.7
00 23.10 СВ 1 н/о н/о +21.2 +15.6 70 +24 +24 комфорт 1016.3 832.6 +17.2 +24.0
03 23.10 штиль 0 н/о н/о +18.1 1020.3 834.1
06 23.10 Ю 1 н/о н/о +18.0 +17.9 99 +19 +19 1021.4 834.9 +17.2 +24.0
09 23.10 В 1 н/о н/о +16.8 1021.4 834.2
12 23.10 СВ 2 н/о н/о +17.2 +17.2 100 +17 +17 1020.8 834.0 +16.3 +24.0

 

Местоположение метеостанции Huejucar (Мексика): широта 22.38 долгота -103.37 высота над уровнем моря 1932 м.

В архиве по умолчанию представлена погода в Huejucar за последнюю неделю. Архивные данные за месяц целиком и за предыдущие месяцы, начиная с января 2011 года, Вы можете получить, выбрав интересующий диапазон дат из раскрывающегося списка и нажав кнопку "Ввод!".


*Определитесь, кто Вы:
робот инопланетянин человек

Внимание! Время в таблицах - всемирное. Для получения местного времени необходимо прибавить поправку, которая в Huejucar равна -6 ч.

Смотрите также архив погоды в соседних городах и на ближайших метеорологических станциях:

Погода в Colotlan (Мексика) (33 км)
Погода в Zacatecas (Мексика) (100 км)
Погода в Aguascalientes (Мексика) (124 км)
Погода в Sombrerete (Мексика) (141 км)
Погода в Tepic (Мексика) (176 км)
Погода в Lagos De Moreno (Мексика) (188 км)
Погода в Guadalajara (Мексика) (190 км)
Погода в Durango (Мексика) (224 км)
Погода в San Luis Potosi (Мексика) (255 км)
Погода в Guanajuato (Мексика) (272 км)

Пояснения к столбцам:

Ветер - указаны скорость ветра в м/с - средняя за 10 мин, порывы в срок и между сроками (в фигурных скобках) и направление, откуда дует ветер: С - северный, СВ - северо-восточный, В - восточный, ЮВ - юго-восточный, Ю - южный, ЮЗ - юго-западный, З - западный, СЗ - северо-западный.
Видимость - горизонтальная дальность видимости в метрах или километрах. При видимости от 1 до 10 км при отсутствии осадков обычно наблюдается дымка, при ухудшении видимости до 1 км и менее - туман. В сухую погоду видимость может ухудшаться дымом, пылью или мглою.
Явления - указаны атмосферные явления, наблюдавшиеся в срок или в последний час перед сроком; фигурными скобками обозначены явления, наблюдавшиеся между сроками (за 1-3 часа до срока); квадратными скобками обозначены град или гололедные отложения с указанием их диаметра в мм.
Облачность - указаны через наклонную черту общая и нижняя облачность в баллах и высота нижней границы облаков в метрах; квадратными скобками обозначены формы облаков: Ci - перистые, Cs - перисто-слоистые, Cc - перисто-кучевые, Ac - высококучевые, As - высокослоистые, Sc - слоисто-кучевые, Ns - слоисто-дождевые, Cu - кучевые, Cb - кучево-дождевые. Подробнее классификацию облаков см. в Атласе облаков (PDF).
T - Температура воздуха - температура, измеренная на высоте 2 м над землей.
Td - Температура точки росы - температура, при понижении до которой содержащийся в воздухе водяной пар достигнет насыщения.
f - Относительная влажность воздуха - влажноcть воздуха, измеренная на высоте 2 м над землей.
Te - Эффективная температура - температура, которую ощущает одетый по сезону человек в тени. Характеристика душности погоды. При расчете учитывается влияние влажности воздуха и скорости ветра на теплоощущения человека.
Tes - Эффективная температура на солнце - температура, которую ощущает человек, с поправкой на солнечный нагрев. Характеристика знойности погоды. Зависит от высоты солнца над горизонтом, облачности и скорости ветра. Ночью, в пасмурную погоду, а также при ветре 12 м/с и более поправка равна нулю.
P - Атмосферное давление - приведенное к уровню моря атмосферное давление.
Po - Атмосферное давление - измеренное на уровне метеостанции атмосферное давление.
Tmin - Минимальная температура - минимум температуры воздуха на высоте 2 м над землей.
Tmax - Максимальная температура - максимум температуры воздуха на высоте 2 м над землей.
R - Количество осадков - Количество выпавших осадков за период времени, мм. При наведении курсора мыши на число - период времени, за который выпало указанное количество осадков.
R24 - Количество осадков - Количество выпавших осадков за 24 часа, мм.
S - Снежный покров - Высота снежного покрова, см. При наведении курсора мыши на число - состояние снежного покрова и степень покрытия местности в баллах.